Regional Weather Roundup
Issued by NWS Little Rock, AR

Home | Current Version | Previous Version | Graphics & Text | Print | Product List | Glossary On
Versions: 1 2 3 4 5 6 7 8 9 10 11 12 13 14 15 16 17 18 19 20 21 22 23 24 25 26 27 28 29 30 31 32 33 34 35 36 37 38 39 40 41 42 43 44 45 46 47 48 49 50
000
ASUS44 KLZK 261605
RWRLZK

WEATHER ROUNDUP FOR ARKANSAS
NATIONAL WEATHER SERVICE LITTLE ROCK AR
1000 AM CST WED NOV 26 2014

NOTE: "FAIR" INDICATES FEW OR NO CLOUDS BELOW 12,000 FEET WITH NO
SIGNIFICANT WEATHER AND/OR OBSTRUCTIONS TO VISIBILITY.

ARZ001-003-010-029-261700-
NORTHWEST ARKANSAS

CITY           SKY/WX    TMP DP  RH WIND       PRES   REMARKS
FAYETTEVILLE   CLOUDY    44  28  53 W9        30.06R
FORT SMITH     CLOUDY    41  28  60 W5        30.08R
HARRISON       LGT RAIN  42  33  70 NW10      30.01R
BENTONVILLE    CLOUDY    45  28  53 NW10      30.05S
ROGERS         CLOUDY    43  28  55 NW9       30.04R
SILOAM SPGS    CLOUDY    45  27  49 NW12      30.08R
HIGHFILL       CLOUDY    44  29  55 NW8       30.04R
SPRINGDALE     PTSUNNY   43  27  52 W10G16    30.06R
$$

ARZ004-005-016-261700-
NORTH CENTRAL ARKANSAS

CITY           SKY/WX    TMP DP  RH WIND       PRES   REMARKS
BATESVILLE     CLOUDY    41  28  60 S8        30.01F
FLIPPIN        CLOUDY    37  30  75 N3        30.04R
MTN HOME       LGT RAIN  36  33  89 NW5       30.03R FOG
$$

ARZ040-041-261700-
WEST CENTRAL ARKANSAS

CITY           SKY/WX    TMP DP  RH WIND       PRES   REMARKS
MENA           MOSUNNY   52  32  46 W6        30.04S
MOUNT IDA      CLOUDY    45  34  65 NW5       30.02S
$$

ARZ009-017-025-026-028-261700-
NORTHEAST ARKANSAS

CITY           SKY/WX    TMP DP  RH WIND       PRES   REMARKS
CORNING          N/A     39  32  75 SE9       30.05S
JONESBORO      CLOUDY    39  31  72 S13G21    30.06F
NEWPORT        CLOUDY    41  35  79 S9        30.04F
WALNUT RIDGE   CLOUDY    39  30  70 SE13      30.03F
BLYTHEVILLE    CLOUDY    50  31  48 S9G21     30.08F
$$

ARZ022-023-033-042-044-261700-
CENTRAL ARKANSAS

CITY           SKY/WX    TMP DP  RH WIND       PRES   REMARKS
LITTLE ROCK    CLOUDY    42  33  70 CALM      30.05S
N LITTLE ROCK  CLOUDY    41  35  79 S7        30.05S
JACKSONVILLE   CLOUDY    41  34  76 S7        30.03F
SEARCY         CLOUDY    39  35  86 S5        30.05F
HOT SPRINGS    CLOUDY    44  35  70 NW5       30.06R
RUSSELLVILLE   CLOUDY    38  32  79 S3        30.02S
CLINTON        FAIR      32  28  86 CALM      30.04F
$$

ARZ036-261700-
EAST ARKANSAS

CITY           SKY/WX    TMP DP  RH WIND       PRES   REMARKS
WEST MEMPHIS   CLOUDY    42  30  62 S14       30.09F
$$

ARZ050-053-066-070-073-261700-
SOUTHWEST ARKANSAS

CITY           SKY/WX    TMP DP  RH WIND       PRES   REMARKS
ARKADELPHIA    FAIR      44  38  79 S5        30.07S
CAMDEN         PTSUNNY   54  32  43 MISG      30.07S
TEXARKANA      SUNNY     54  31  41 SW15G24   30.09R
EL DORADO      MOSUNNY   53  36  52 SW13      30.09F
DE QUEEN       SUNNY     45  37  73 W5        30.07R
$$

ARZ056-057-069-261700-
SOUTHEAST ARKANSAS

CITY           SKY/WX    TMP DP  RH WIND       PRES   REMARKS
PINE BLUFF     CLOUDY    49  35  58 S9        30.06F
STUTTGART      CLOUDY    45  36  70 SE9       30.06F
MONTICELLO     MOSUNNY   54  34  46 SW10G18   30.08F

$$





USA.gov is the U.S. government's official web portal to all federal, state and local government web resources and services.